Location: Clyde
(45.1830°S, 169.3170°E)
Time: 20:55:29
(UTC+12:00)

Cosmos 724 - Pass Details

Date: 24 January 2019
Orbit: 848 x 947 km, 65.6° (Epoch: 19 April)

Event Time Altitude Azimuth Distance (km) Brightness Sun altitude
Rises 22:28:24 0° 330° (NNW) 3,508 7.3 -10.4°
Reaches altitude 10° 22:30:55 10° 331° (NNW) 2,560 6.6 -10.7°
Maximum altitude 22:36:52 83° 57° (ENE) 894 4.3 -11.5°
Drops below altitude 10° 22:42:44 10° 144° (SE) 2,527 6.8 -12.2°
Sets 22:45:12 0° 144° (SE) 3,461 7.5 -12.5°
